• In Uzbekistan
  • List of Countries
  • For 7 days
  • Water Temperature
  • Satellite Maps
  • Weather Map
  • Weather Widgets
  • user-avatar
    Login

    Hourly Weather Sumgayit

    Today, 4 December, Sunday

    Time Temperature Precipitation Wind Pressure Humidity
    00:00 +6°C° 0 mm 9 mps 743 mmHg 40%
    01:00 +6°C° 0 mm 8 mps 743 mmHg 41%
    02:00 +6°C° 0 mm 8 mps 744 mmHg 41%
    03:00 +6°C° 0 mm 8 mps 744 mmHg 41%
    04:00 +5°C° 0 mm 7 mps 745 mmHg 44%
    05:00 +5°C° 0 mm 6 mps 745 mmHg 47%
    06:00 +5°C° 0 mm 5 mps 745 mmHg 50%
    07:00 +5°C° 0 mm 5 mps 745 mmHg 48%
    08:00 +6°C° 0 mm 5 mps 746 mmHg 46%
    09:00 +6°C° 0 mm 5 mps 746 mmHg 47%
    10:00 +8°C° 0 mm 5 mps 746 mmHg 45%
    11:00 +9°C° 0 mm 5 mps 746 mmHg 42%
    12:00 +10°C° 0 mm 5 mps 746 mmHg 40%
    13:00 +10°C° 0 mm 5 mps 746 mmHg 40%
    14:00 +10°C° 0 mm 6 mps 745 mmHg 40%
    15:00 +9°C° 0 mm 6 mps 745 mmHg 42%
    16:00 +8°C° 0 mm 5 mps 745 mmHg 44%
    17:00 +8°C° 0 mm 5 mps 745 mmHg 46%
    18:00 +7°C° 0 mm 5 mps 745 mmHg 49%
    19:00 +6°C° 0 mm 5 mps 745 mmHg 49%
    20:00 +6°C° 0 mm 5 mps 745 mmHg 50%
    21:00 +5°C° 0 mm 5 mps 745 mmHg 50%
    22:00 +5°C° 0 mm 5 mps 745 mmHg 54%
    23:00 +5°C° 0 mm 5 mps 745 mmHg 59%

    Tomorrow, 5 December, Monday

    Time Temperature Precipitation Wind Pressure Humidity
    00:00 +3°C° 0 mm 5 mps 745 mmHg 63%
    01:00 +3°C° 0 mm 5 mps 746 mmHg 69%
    02:00 +3°C° 0 mm 5 mps 746 mmHg 74%
    03:00 +2°C° 0 mm 6 mps 746 mmHg 80%
    04:00 +2°C° 0 mm 5 mps 747 mmHg 81%
    05:00 +2°C° 0 mm 5 mps 747 mmHg 82%
    06:00 +2°C° 0 mm 5 mps 747 mmHg 84%
    07:00 +2°C° 0 mm 5 mps 747 mmHg 81%
    08:00 +4°C° 0 mm 4 mps 748 mmHg 79%
    09:00 +5°C° 0 mm 4 mps 748 mmHg 77%
    10:00 +5°C° 0 mm 4 mps 748 mmHg 74%
    11:00 +5°C° 0 mm 3 mps 747 mmHg 71%
    12:00 +7°C° 0 mm 3 mps 747 mmHg 68%
    13:00 +7°C° 0 mm 3 mps 746 mmHg 67%
    14:00 +7°C° 0 mm 3 mps 746 mmHg 67%
    15:00 +7°C° 0 mm 3 mps 746 mmHg 67%
    16:00 +5°C° 0 mm 3 mps 746 mmHg 70%
    17:00 +6°C° 0 mm 2 mps 746 mmHg 73%
    18:00 +5°C° 0 mm 2 mps 746 mmHg 76%
    19:00 +5°C° 0 mm 2 mps 746 mmHg 77%
    20:00 +6°C° 0 mm 1 mps 746 mmHg 77%
    21:00 +6°C° 0 mm 1 mps 746 mmHg 78%
    22:00 +5°C° 0.2 mm 2 mps 746 mmHg 79%
    23:00 +4°C° 0.2 mm 3 mps 747 mmHg 80%

    Day after tomorrow, 6 December, Tuesday

    Time Temperature Precipitation Wind Pressure Humidity
    00:00 +4°C° 0.2 mm 4 mps 747 mmHg 81%
    01:00 +3°C° 0.5 mm 5 mps 747 mmHg 81%
    02:00 +2°C° 0.5 mm 7 mps 747 mmHg 82%
    03:00 +1°C° 0.5 mm 8 mps 748 mmHg 82%
    04:00 +1°C° 0.3 mm 8 mps 748 mmHg 80%
    05:00 0°C° 0.3 mm 9 mps 748 mmHg 78%
    06:00 0°C° 0.3 mm 9 mps 748 mmHg 76%
    07:00 0°C° 0.1 mm 9 mps 749 mmHg 75%
    08:00 0°C° 0.1 mm 9 mps 749 mmHg 74%
    09:00 0°C° 0.1 mm 9 mps 750 mmHg 73%
    10:00 0°C° 0.1 mm 8 mps 749 mmHg 72%
    11:00 +1°C° 0.1 mm 8 mps 749 mmHg 71%
    12:00 +2°C° 0.1 mm 7 mps 749 mmHg 69%
    13:00 +2°C° 0.1 mm 6 mps 749 mmHg 69%
    14:00 +2°C° 0.1 mm 6 mps 749 mmHg 69%
    15:00 +2°C° 0.1 mm 5 mps 749 mmHg 68%
    16:00 +1°C° 0 mm 4 mps 749 mmHg 71%
    17:00 +2°C° 0 mm 3 mps 749 mmHg 73%
    18:00 +1°C° 0 mm 3 mps 749 mmHg 76%
    19:00 +2°C° 0 mm 2 mps 749 mmHg 75%
    20:00 +2°C° 0 mm 2 mps 749 mmHg 75%
    21:00 +1°C° 0 mm 2 mps 749 mmHg 75%
    22:00 0°C° 0 mm 3 mps 748 mmHg 69%
    23:00 -1°C° 0 mm 4 mps 748 mmHg 64%

    7 December, Wednesday

    Time Temperature Precipitation Wind Pressure Humidity
    00:00 -1°C° 0 mm 5 mps 747 mmHg 58%
    01:00 -1°C° 0 mm 5 mps 747 mmHg 57%
    02:00 -2°C° 0 mm 6 mps 746 mmHg 55%
    03:00 -2°C° 0 mm 6 mps 746 mmHg 54%
    04:00 -2°C° 0 mm 6 mps 745 mmHg 54%
    05:00 -3°C° 0 mm 7 mps 745 mmHg 53%
    06:00 -3°C° 0 mm 7 mps 745 mmHg 53%
    07:00 -2°C° 0 mm 8 mps 744 mmHg 51%
    08:00 -1°C° 0 mm 8 mps 744 mmHg 48%
    09:00 -1°C° 0 mm 9 mps 744 mmHg 46%
    10:00 0°C° 0 mm 9 mps 743 mmHg 42%
    11:00 +2°C° 0 mm 9 mps 743 mmHg 39%
    12:00 +3°C° 0 mm 10 mps 742 mmHg 36%
    13:00 +3°C° 0 mm 10 mps 741 mmHg 36%
    14:00 +3°C° 0 mm 9 mps 741 mmHg 37%
    15:00 +2°C° 0 mm 9 mps 741 mmHg 37%
    16:00 +2°C° 0 mm 9 mps 741 mmHg 40%
    17:00 +1°C° 0 mm 9 mps 741 mmHg 42%
    18:00 0°C° 0 mm 9 mps 741 mmHg 44%
    19:00 0°C° 0 mm 8 mps 741 mmHg 46%
    20:00 0°C° 0 mm 7 mps 741 mmHg 49%
    21:00 -1°C° 0 mm 6 mps 742 mmHg 51%
    22:00 -1°C° 0 mm 6 mps 742 mmHg 56%
    23:00 -1°C° 0 mm 6 mps 743 mmHg 60%

    8 December, Thursday

    Time Temperature Precipitation Wind Pressure Humidity
    00:00 -1°C° 0 mm 7 mps 743 mmHg 65%
    01:00 -2°C° 0 mm 8 mps 744 mmHg 68%
    02:00 -2°C° 0 mm 8 mps 744 mmHg 72%
    03:00 -3°C° 0 mm 9 mps 745 mmHg 75%
    04:00 -3°C° 0 mm 10 mps 746 mmHg 76%
    05:00 -4°C° 0 mm 10 mps 747 mmHg 76%
    06:00 -4°C° 0 mm 10 mps 748 mmHg 76%
    07:00 -4°C° 0 mm 11 mps 749 mmHg 72%
    08:00 -4°C° 0 mm 11 mps 750 mmHg 69%
    09:00 -4°C° 0 mm 11 mps 750 mmHg 65%
    10:00 -4°C° 0 mm 10 mps 751 mmHg 65%
    11:00 -4°C° 0 mm 9 mps 751 mmHg 64%
    12:00 -4°C° 0 mm 8 mps 751 mmHg 64%
    13:00 -4°C° 0 mm 8 mps 751 mmHg 65%
    14:00 -3°C° 0 mm 7 mps 751 mmHg 66%
    15:00 -3°C° 0 mm 7 mps 751 mmHg 67%
    16:00 -4°C° 0 mm 6 mps 751 mmHg 69%
    17:00 -4°C° 0 mm 5 mps 751 mmHg 71%
    18:00 -3°C° 0 mm 4 mps 752 mmHg 73%
    19:00 -3°C° 0 mm 4 mps 752 mmHg 73%
    20:00 -2°C° 0 mm 3 mps 752 mmHg 74%
    21:00 -2°C° 0 mm 2 mps 752 mmHg 74%
    22:00 -2°C° 0 mm 2 mps 752 mmHg 74%
    23:00 -2°C° 0 mm 2 mps 751 mmHg 74%

    9 December, Friday

    Time Temperature Precipitation Wind Pressure Humidity
    00:00 0°C° 0 mm 1 mps 751 mmHg 73%
    01:00 0°C° 0 mm 1 mps 751 mmHg 73%
    02:00 0°C° 0 mm 1 mps 751 mmHg 74%
    03:00 0°C° 0 mm 1 mps 751 mmHg 74%
    04:00 -1°C° 0 mm 1 mps 751 mmHg 74%
    05:00 -1°C° 0 mm 1 mps 751 mmHg 74%
    06:00 -1°C° 0 mm 1 mps 751 mmHg 74%
    07:00 0°C° 0 mm 1 mps 751 mmHg 71%
    08:00 -2°C° 0 mm 2 mps 751 mmHg 68%
    09:00 -1°C° 0 mm 2 mps 752 mmHg 65%
    10:00 -1°C° 0 mm 2 mps 751 mmHg 61%
    11:00 +1°C° 0 mm 2 mps 751 mmHg 56%
    12:00 +1°C° 0 mm 3 mps 750 mmHg 52%
    13:00 +1°C° 0 mm 3 mps 750 mmHg 51%
    14:00 +1°C° 0 mm 3 mps 749 mmHg 50%
    15:00 0°C° 0 mm 4 mps 749 mmHg 49%
    16:00 -1°C° 0 mm 4 mps 749 mmHg 52%
    17:00 -2°C° 0 mm 4 mps 749 mmHg 56%
    18:00 -4°C° 0 mm 5 mps 748 mmHg 59%
    19:00 -4°C° 0 mm 5 mps 748 mmHg 58%
    20:00 -3°C° 0 mm 6 mps 748 mmHg 57%
    21:00 -3°C° 0 mm 7 mps 747 mmHg 56%
    22:00 -3°C° 0 mm 7 mps 747 mmHg 56%
    23:00 -3°C° 0 mm 7 mps 746 mmHg 56%
    Show more